Skip Page Navigation
NASA JPL Caltech
NASA Logo - Jet Propulsion Laboratory + View the NASA Portal
+ Center for Near-Earth Object Studies
JPL Home Earth Solar System Stars & Galaxies Technology
JPL Solar System Dynamics
BODIES ORBITS EPHEMERIDES TOOLS PHYSICAL DATA DISCOVERY FAQ SITE MAP
IMPORTANT: The SSD Announcement email list is now available. Major changes are coming in the near future, including possible hostname and/or URL changes. To be notified of such changes, subscribe to this email list.

Please visit this page for more details.


JPL Small-Body Database Browser
Search: [ help ]  
71511 (2000 CF51)
Classification: Main-belt Asteroid          SPK-ID: 2071511
Ephemeris | Orbit Diagram | Orbital Elements | Mission Design | Physical Parameters | Discovery Circumstances | Close-Approach Data ]

[ show orbit diagram ]
Orbital Elements at Epoch 2458600.5 (2019-Apr-27.0) TDB
Reference: JPL 23 (heliocentric ecliptic J2000)
 Element Value Uncertainty (1-sigma)   Units 
e .09663953629944962 4.6041e-08  
a 3.182805581393897 2.7658e-08 au
q 2.87522072587669 1.4565e-07 au
i 7.586622309610771 5.9951e-06 deg
node 300.7027555764258 4.1255e-05 deg
peri 290.7128805655514 5.3014e-05 deg
M 71.54360020047656 3.3981e-05 deg
tp 2458188.324775280037
(2018-Mar-10.82477528)
0.00019532 TDB
period 2074.023119935169
5.68
2.7034e-05
7.402e-08
d
yr
n .1735756928356965 2.2625e-09 deg/d
Q 3.490390436911103 3.033e-08 au
  Orbit Determination Parameters
   # obs. used (total)      1043  
   data-arc span      7567 days (20.72 yr)  
   first obs. used      1998-12-17  
   last obs. used      2019-09-05  
   planetary ephem.      DE431  
   SB-pert. ephem.      SB431-N16  
   condition code      0  
   norm. resid. RMS      .51933  
   source      ORB  
   producer      Otto Matic  
   solution date      2019-Sep-24 02:40:16  

Additional Information
 Earth MOID = 1.87567 au 
 Jupiter MOID = 1.62257 au 
 T_jup = 3.178 
[ show covariance matrix ]

Ephemeris | Orbit Diagram | Orbital Elements | Mission Design | Physical Parameters | Discovery Circumstances | Close-Approach Data ]

Physical Parameter Table
Parameter Symbol Value Units Sigma Reference Notes
absolute magnitude H 13.4   n/a MPO449452  
diameter diameter 12.572 km 0.222 urn:nasa:pds:neowise_diameters_albedos::2.0[mainbelt] (http://adsabs.harvard.edu/abs/2011ApJ...741...68M)  
geometric albedo albedo 0.064   0.010 urn:nasa:pds:neowise_diameters_albedos::2.0[mainbelt] (http://adsabs.harvard.edu/abs/2011ApJ...741...68M)  

71511 (2000 CF51)          Discovered 2000-Feb-02 by LINEAR at Socorro
Reference: 20031109/Numbers.arcLast Updated: 2004-04-19

[ show close-approach data ]
Ephemeris | Orbit Diagram | Orbital Elements | Mission Design | Physical Parameters | Discovery Circumstances | Close-Approach Data ]
ABOUT SSD CREDITS/AWARDS PRIVACY/COPYRIGHT GLOSSARY LINKS
FirstGov
(server date/time)  
NASA Home Page
Site Manager:   Ryan S. Park
Webmaster  Alan B. Chamberlin